Wetbulb
70.55 70.43 70.08 70.20 70.23 70.05 69.03 67.82 67.61 67.13 65.80 64.54 63.07 61.97 61.47 61.56 61.98 61.93 62.25 60.52 56.41 55.56 57.27 56.09 55.04 58.16 57.22 56.16 56.67 56.11 56.77 56.42 53.19 56.13 57.36 58.86 57.28 58.68 56.61 58.29 57.44 56.52 57.97
69.54 68.37 67.48 69.21 70.20 69.61 68.65 69.06 68.93 67.72 67.02 66.04 64.79 63.02 62.59 61.88 61.27 59.71 59.10 60.36 59.11 56.39 57.38 55.91 56.29 55.77 55.03 55.99 55.99 57.18 55.11 57.06 54.89 54.23 56.38 55.12 55.01 55.98 53.42 53.08 53.34 53.46 55.59
66.55 60.41 64.50 67.32 68.20 68.72 69.51 69.40 68.92 67.93 67.16 65.46 65.79 65.19 64.62 63.53 61.60 59.83 59.63 60.22 57.52 57.57 57.99 55.33 55.03 56.84 53.24 55.39 54.71 53.56 54.82 54.96 56.06 54.29 51.98 53.59 54.56 50.10 49.37 50.50 51.59 53.66 54.02
64.47 61.26 64.04 67.16 68.76 68.75 68.72 68.13 67.85 67.74 66.64 65.72 64.59 64.04 62.85 62.87 62.09 61.48 60.17 58.44 58.52 58.12 58.74 56.92 57.40 55.68 53.28 54.73 53.21 53.88 52.65 54.61 53.75 51.94 52.11 51.77 50.87 49.54 48.23 47.35 50.40 51.54 51.17
67.18 66.97 67.56 67.95 67.98 67.53 67.12 66.95 67.05 66.79 66.31 65.81 64.96 63.55 62.81 62.81 61.15 61.74 61.72 60.63 59.20 58.21 57.72 57.35 57.50 57.35 57.38 55.95 54.20 53.00 53.37 52.10 51.64 51.09 50.90 50.87 48.00 46.02 45.76 49.79 47.12 48.59 52.18
62.41 63.66 65.95 67.69 67.23 66.55 65.96 65.59 65.59 65.66 65.55 64.96 64.14 64.12 64.05 63.48 56.22 53.51 58.03 62.06 61.54 60.69 59.76 59.13 58.32 58.16 57.49 55.95 55.06 54.98 54.29 52.42 51.95 51.13 52.33 48.99 49.31 49.02 50.88 47.24 47.21 47.83 45.67
63.91 64.71 65.17 65.69 64.28 63.63 63.21 62.95 63.18 63.82 64.59 63.90 63.69 63.07 62.46 62.91 54.12 51.48 52.70 60.90 61.14 60.42 60.90 60.95 60.16 60.48 58.73 58.58 55.50 54.45 54.10 53.49 53.59 53.52 50.08 50.11 49.39 51.02 49.69 46.25 45.53 46.15 46.04
60.65 61.28 61.65 61.09 59.79 59.09 59.11 58.09 59.51 60.15 58.77 59.84 60.89 61.09 61.42 62.70 52.87 49.46 49.93 57.67 59.72 60.30 59.29 59.08 60.15 60.15 60.04 58.73 58.02 56.43 54.93 54.22 53.85 53.91 52.06 52.12 52.83 55.65 54.94 52.99 47.81 48.57 51.96
58.96 59.28 59.13 59.01 58.08 58.56 58.24 58.72 56.68 58.13 59.00 58.75 59.44 58.62 59.13 59.07 52.33 48.94 51.17 58.75 58.16 59.27 60.37 59.24 58.88 59.00 54.34 49.99 55.39 53.97 53.17 52.52 52.85 51.71 51.06 49.72 48.32 48.62 50.56 48.28 46.18 47.18 48.72
58.17 58.21 58.41 58.75 58.76 58.50 58.95 58.97 59.32 59.26 58.90 58.70 58.34 58.82 55.96 57.20 51.81 48.63 49.93 57.58 59.67 59.14 59.83 59.23 52.65 55.52 50.18 47.49 53.23 53.44 51.17 51.42 51.61 51.87 52.14 49.85 49.90 50.38 48.94 53.36 53.79 50.61 49.54
59.09 59.32 59.16 59.60 59.41 59.23 59.00 58.89 58.10 57.23 56.94 56.99 57.18 58.16 58.76 57.73 57.71 48.65 46.36 54.60 58.67 58.99 58.99 57.83 58.52 48.94 46.02 45.68 46.35 54.51 52.06 51.68 51.08 52.20 52.19 51.54 50.67 53.23 54.81 54.48 55.54 52.93 50.20
58.86 58.35 58.12 58.40 57.71 57.29 57.18 56.59 56.29 56.32 55.11 54.97 55.17 54.89 55.27 57.41 51.95 50.52 44.91 45.77 52.06 57.77 57.83 58.35 57.63 47.65 44.59 43.83 45.95 47.83 45.28 49.04 51.99 50.71 50.75 52.23 53.12 52.76 53.50 54.46 55.03 54.68 54.13
57.06 57.01 57.15 57.39 57.31 57.18 55.55 55.15 54.16 55.10 53.57 53.17 52.71 52.53 53.00 54.40 55.65 47.95 45.42 44.35 45.03 49.97 56.71 53.79 48.05 45.13 44.12 44.16 45.28 44.73 44.91 49.15 49.60 49.43 52.12 53.16 54.34 54.42 55.14 53.40 53.57 54.31 54.13
56.44 56.58 56.87 56.57 56.08 56.86 55.42 54.45 54.11 52.82 52.32 52.04 52.18 52.09 52.75 53.74 54.76 55.83 54.84 55.13 49.53 49.61 50.92 54.26 51.34 49.02 46.73 49.12 47.36 46.78 48.86 49.45 48.86 49.90 52.89 53.94 54.82 53.57 52.07 51.26 49.85 50.64 49.98
56.00 55.92 56.22 54.78 55.63 54.60 54.82 54.55 53.67 54.53 52.05 51.80 52.00 52.37 52.08 51.86 52.45 44.86 44.13 48.19 50.01 49.92 50.57 53.32 51.76 50.53 49.13 49.45 50.81 48.19 48.24 48.18 49.74 52.22 52.89 52.68 51.87 51.53 49.96 50.54 49.62 50.27 49.43
54.61 54.25 53.72 53.66 53.25 53.26 53.26 53.35 47.28 43.36 42.52 41.00 40.72 43.79 51.17 45.27 42.28 41.06 40.27 39.18 39.94 40.14 49.51 51.13 50.52 50.23 49.09 49.16 49.64 47.85 48.12 49.99 52.02 51.99 52.20 51.84 51.01 50.36 49.19 48.55 49.58 49.49 48.45
53.64 54.36 54.04 51.38 52.99 52.73 52.37 52.05 50.96 51.24 44.76 41.86 39.28 38.46 39.00 41.23 39.54 38.97 39.23 38.67 41.14 41.69 50.10 50.40 49.58 49.02 49.51 49.54 49.38 49.50 50.06 51.71 52.46 51.08 50.37 50.90 50.77 49.99 47.42 48.56 48.65 48.66 48.05
54.28 46.89 52.58 53.02 53.04 52.75 52.13 51.77 51.66 51.07 50.57 51.80 46.08 42.25 41.15 39.07 38.71 39.30 39.28 40.68 49.92 47.82 49.86 49.41 47.80 47.56 48.28 48.03 48.73 49.54 49.37 48.50 48.93 49.68 50.03 50.15 49.74 49.56 48.21 47.90 48.20 46.94 45.38
53.38 53.01 52.96 52.61 52.32 50.55 52.10 52.18 52.14 51.56 51.07 51.44 51.91 47.75 45.12 39.66 39.13 39.30 38.57 49.66 50.18 47.85 47.67 48.56 48.93 49.44 49.75 49.60 48.51 48.37 48.53 48.50 48.63 48.66 48.23 48.85 48.97 49.37 48.06 48.50 47.04 39.05 41.20
52.80 47.01 45.69 50.75 51.02 50.91 51.03 51.41 51.67 51.09 50.34 50.55 49.50 50.17 50.54 47.80 49.89 49.51 48.66 48.60 47.27 46.72 47.84 49.03 49.04 48.97 49.46 48.54 48.35 48.08 47.64 47.18 47.16 47.31 46.85 47.00 46.48 47.42 46.25 46.23 46.82 44.67 43.69
50.71 50.63 44.05 50.71 50.42 50.49 50.08 49.98 49.68 48.47 47.38 47.86 48.25 47.29 34.62 46.50 48.79 47.09 46.55 45.03 44.60 44.62 45.62 46.36 47.74 48.03 48.01 47.52 47.31 46.65 45.52 46.19 46.66 46.21 45.13 44.91 45.62 44.13 44.90 44.76 43.83 42.08 41.33
50.05 49.57 49.27 49.47 50.42 49.68 48.70 49.69 49.67 48.60 47.29 45.65 45.95 46.87 35.89 47.94 46.70 46.11 46.10 46.13 47.60 47.06 47.83 47.83 47.02 46.57 46.08 46.28 46.49 46.99 46.19 45.55 45.13 44.32 43.81 43.94 43.85 44.18 44.14 43.73 43.12 42.59 42.70
49.51 49.18 50.32 50.99 49.60 46.18 49.52 47.84 46.70 46.46 45.71 45.78 46.10 45.82 45.52 45.14 45.18 45.91 46.69 48.05 47.74 47.26 46.99 46.75 46.17 45.62 45.65 45.75 45.61 45.16 44.83 44.18 44.51 44.42 43.07 42.95 43.57 43.84 43.45 41.99 41.56 42.44 42.96
48.11 50.31 51.09 49.02 47.41 49.71 48.92 46.20 45.79 43.08 45.52 45.79 45.95 46.16 46.50 46.70 48.10 49.16 48.45 47.28 46.37 45.47 45.96 45.82 45.77 44.95 44.34 44.59 45.40 45.71 45.23 45.48 44.58 42.74 44.14 44.25 42.77 41.96 41.19 43.84 44.31 43.10 44.38
51.21 52.07 51.38 47.73 48.29 49.45 49.05 47.62 47.54 47.00 47.18 47.07 46.62 47.89 50.05 49.38 49.12 48.15 47.52 46.78 46.05 45.49 45.46 45.49 45.23 44.22 44.11 44.36 44.05 42.75 35.06 32.93 42.13 37.44 45.24 44.51 43.78 42.94 42.60 42.30 42.02 41.64 42.10
52.62 51.92 47.68 48.62 50.14 49.97 49.58 49.03 49.24 49.44 49.23 49.59 49.93 49.53 47.78 46.73 47.57 47.39 46.84 46.36 45.58 45.20 44.97 44.59 44.09 43.41 43.62 43.33 40.50 33.31 32.06 32.36 38.05 33.08 44.96 45.70 45.40 46.52 46.81 45.07 44.34 44.49 45.68
MSLP
1014.56 1015.20 1015.50 1015.72 1015.69 1015.89 1016.16 1016.40 1016.64 1016.77 1016.69 1016.71 1016.81 1017.33 1017.53 1017.65 1017.66 1017.89 1017.90 1018.13 1018.60 1018.87 1018.87 1019.03 1019.25 1019.12 1018.92 1019.14 1019.27 1019.33 1018.92 1018.74 1018.45 1018.21 1018.99 1019.37 1020.05 1019.87 1019.99 1020.20 1020.34 1020.38 1020.23
1015.35 1015.73 1015.36 1016.00 1015.67 1015.51 1015.69 1015.77 1016.11 1016.22 1016.37 1016.40 1016.52 1016.73 1016.86 1017.06 1017.33 1017.43 1017.44 1017.31 1017.61 1018.04 1018.11 1018.35 1018.45 1018.71 1018.85 1018.84 1018.89 1018.74 1018.80 1018.85 1019.01 1018.78 1018.96 1019.43 1019.90 1020.10 1020.30 1020.48 1020.42 1020.25 1020.03
1016.34 1015.17 1015.22 1015.67 1015.70 1015.08 1015.22 1015.37 1015.54 1015.89 1015.89 1015.98 1015.95 1016.05 1016.11 1016.37 1016.69 1016.75 1016.76 1016.86 1017.11 1017.21 1017.37 1017.70 1017.73 1017.97 1018.34 1018.22 1018.55 1018.73 1018.72 1018.73 1018.85 1019.06 1019.16 1019.43 1019.54 1019.94 1020.33 1020.55 1020.52 1020.30 1019.99
1014.78 1014.61 1014.18 1015.43 1015.43 1014.95 1015.01 1015.10 1015.18 1015.51 1015.45 1015.33 1015.56 1015.53 1015.71 1016.00 1016.17 1016.23 1016.42 1016.49 1016.53 1016.62 1016.74 1017.02 1017.13 1017.37 1017.53 1017.61 1017.99 1018.26 1018.56 1018.50 1019.19 1018.97 1019.10 1019.32 1019.53 1019.86 1020.12 1020.34 1020.00 1019.93 1019.71
1014.75 1014.45 1014.50 1014.86 1014.79 1014.83 1014.94 1015.01 1015.00 1015.10 1015.03 1014.91 1014.99 1015.18 1015.48 1015.52 1015.71 1015.60 1015.79 1015.84 1015.95 1015.98 1016.03 1016.10 1016.25 1016.40 1016.33 1016.86 1017.13 1017.36 1017.80 1017.97 1018.41 1018.54 1018.64 1018.95 1019.16 1019.53 1019.68 1019.57 1019.85 1019.86 1019.48
1014.93 1014.44 1014.43 1014.53 1014.62 1014.74 1014.82 1014.87 1014.87 1014.80 1014.69 1014.70 1014.75 1014.70 1014.85 1014.99 1014.99 1015.28 1015.45 1015.20 1015.00 1015.00 1014.92 1015.13 1015.26 1015.58 1015.52 1015.72 1015.82 1016.09 1016.40 1016.73 1017.12 1017.34 1017.65 1018.08 1018.21 1018.63 1018.93 1019.19 1019.38 1019.36 1019.06
1014.39 1014.48 1014.60 1014.76 1014.90 1015.06 1015.14 1015.13 1015.07 1014.94 1014.98 1014.83 1014.61 1014.45 1014.47 1014.52 1014.66 1014.90 1014.84 1014.86 1014.46 1014.40 1014.33 1014.32 1014.37 1014.49 1014.61 1014.53 1014.84 1015.14 1015.32 1015.67 1015.90 1016.26 1016.83 1017.15 1017.53 1017.79 1018.36 1018.79 1019.05 1019.09 1018.76
1014.76 1014.92 1015.08 1015.21 1015.26 1015.41 1015.41 1015.48 1015.25 1015.38 1014.95 1014.97 1014.77 1014.41 1014.32 1014.36 1014.26 1014.30 1014.23 1014.36 1014.13 1013.85 1013.82 1013.65 1013.77 1013.61 1013.55 1013.74 1014.00 1014.10 1014.37 1014.74 1015.12 1015.40 1015.98 1016.44 1016.76 1016.89 1017.23 1017.87 1018.41 1018.51 1018.34
1015.13 1015.30 1015.46 1015.55 1015.60 1015.52 1015.42 1015.38 1015.53 1015.32 1015.44 1014.88 1014.74 1014.53 1013.93 1013.70 1013.83 1013.99 1014.07 1013.65 1013.49 1013.35 1013.09 1012.81 1012.68 1012.93 1013.08 1013.27 1013.45 1013.49 1013.73 1014.09 1014.23 1014.87 1015.41 1015.97 1016.38 1016.72 1017.21 1017.95 1018.03 1017.88 1017.35
1015.63 1015.77 1015.88 1015.91 1015.78 1015.58 1015.47 1015.40 1015.46 1015.25 1014.98 1014.61 1014.29 1014.11 1013.82 1013.79 1013.51 1013.23 1013.25 1013.22 1012.40 1011.96 1012.22 1012.22 1012.18 1012.44 1012.62 1012.82 1013.08 1013.01 1013.35 1013.26 1013.86 1014.56 1015.23 1015.59 1016.03 1016.31 1016.76 1016.82 1016.33 1016.06 1016.09
1015.94 1015.94 1015.90 1015.84 1015.75 1015.68 1015.58 1015.50 1015.40 1015.20 1014.90 1014.49 1014.03 1013.60 1013.28 1012.99 1012.73 1012.67 1012.72 1012.78 1011.73 1011.37 1011.42 1011.35 1011.50 1011.87 1011.76 1011.92 1012.46 1012.56 1012.47 1013.13 1013.25 1013.81 1014.34 1014.82 1015.29 1015.43 1015.58 1016.03 1015.72 1015.58 1015.48
1015.93 1015.86 1015.79 1015.79 1015.73 1015.50 1015.46 1015.28 1015.09 1014.81 1014.40 1014.00 1013.54 1013.05 1012.56 1012.40 1012.28 1012.18 1012.04 1012.06 1011.60 1011.03 1010.40 1010.60 1010.83 1011.21 1011.47 1011.55 1011.83 1012.07 1012.37 1012.64 1013.06 1013.57 1013.67 1013.78 1013.76 1014.03 1014.43 1014.81 1015.17 1015.43 1015.44
1015.72 1015.58 1015.48 1015.42 1015.28 1015.29 1015.24 1014.97 1014.62 1014.35 1014.07 1013.69 1013.16 1012.61 1012.20 1011.94 1011.77 1011.50 1011.52 1011.55 1011.43 1011.33 1010.53 1010.33 1011.00 1011.06 1011.39 1011.62 1011.51 1011.86 1012.12 1012.32 1012.91 1013.12 1012.79 1012.45 1012.84 1013.29 1013.65 1014.41 1014.84 1015.24 1015.68
1015.41 1015.31 1015.21 1015.15 1014.98 1014.89 1014.74 1014.44 1014.27 1013.95 1013.74 1013.44 1013.07 1012.62 1012.19 1011.95 1011.60 1011.31 1011.40 1011.25 1011.17 1011.29 1010.96 1010.56 1010.70 1010.83 1011.18 1011.36 1011.70 1011.87 1012.10 1012.21 1012.68 1012.55 1011.98 1012.00 1012.27 1013.06 1013.59 1013.66 1013.90 1014.46 1014.73
1015.21 1015.07 1014.88 1014.56 1014.54 1014.45 1014.34 1014.20 1013.98 1013.86 1013.72 1013.67 1013.26 1012.80 1012.46 1012.12 1011.86 1012.61 1012.65 1012.02 1011.58 1011.09 1010.77 1010.29 1010.34 1010.55 1010.69 1011.03 1011.32 1011.46 1012.03 1012.28 1012.40 1011.93 1011.59 1011.63 1011.99 1012.59 1012.76 1013.15 1013.48 1013.75 1013.92
1015.07 1014.80 1014.52 1014.41 1014.21 1014.05 1013.87 1013.58 1013.63 1013.47 1013.28 1013.37 1013.15 1013.11 1012.41 1012.70 1012.59 1012.28 1012.10 1011.80 1011.31 1010.98 1010.68 1010.17 1009.99 1010.16 1010.26 1010.47 1010.82 1011.32 1011.78 1011.93 1011.43 1011.42 1011.46 1011.45 1011.62 1012.06 1012.32 1013.01 1013.09 1013.22 1013.45
1014.86 1014.67 1014.47 1014.41 1014.13 1013.91 1013.56 1013.24 1012.75 1012.50 1012.54 1012.30 1012.18 1012.35 1012.64 1012.33 1012.31 1012.25 1011.81 1011.41 1010.83 1010.54 1010.50 1010.08 1009.90 1009.86 1009.98 1010.34 1010.59 1010.88 1011.06 1010.92 1010.97 1011.09 1011.15 1011.23 1011.52 1011.82 1012.32 1012.43 1012.75 1013.00 1013.27
1014.75 1014.76 1014.59 1014.32 1014.13 1013.76 1013.40 1013.06 1012.69 1012.15 1011.66 1011.49 1011.62 1011.95 1012.01 1012.00 1011.94 1011.73 1011.33 1011.08 1010.62 1010.43 1010.29 1009.95 1009.85 1009.80 1010.01 1010.19 1010.60 1010.76 1010.63 1011.01 1011.06 1011.02 1011.14 1011.41 1011.61 1011.70 1012.02 1012.24 1012.53 1013.01 1013.76
1014.81 1014.67 1014.54 1014.31 1014.07 1013.89 1013.39 1012.85 1012.32 1011.96 1011.82 1011.46 1011.32 1011.33 1011.52 1011.69 1011.57 1011.31 1011.06 1010.86 1010.42 1010.44 1010.22 1010.19 1010.19 1010.29 1010.39 1010.38 1010.33 1010.32 1010.62 1011.03 1011.09 1011.29 1011.53 1011.66 1011.84 1011.90 1012.19 1012.47 1012.90 1013.75 1014.12
1014.71 1015.09 1015.11 1014.50 1013.92 1013.42 1013.05 1012.64 1012.27 1012.07 1011.82 1011.47 1011.39 1011.30 1011.29 1011.33 1010.98 1010.97 1010.94 1010.81 1010.89 1010.80 1010.75 1010.47 1010.50 1010.41 1010.10 1010.28 1010.39 1010.64 1011.02 1011.30 1011.58 1011.68 1011.95 1012.20 1012.43 1012.42 1012.55 1012.95 1013.35 1013.58 1014.08
1014.92 1014.69 1014.95 1014.33 1013.74 1013.41 1013.33 1012.98 1012.61 1012.28 1012.03 1011.67 1011.47 1011.57 1011.89 1011.66 1011.19 1011.35 1011.31 1011.43 1011.21 1011.23 1010.98 1010.80 1010.47 1010.56 1010.79 1010.95 1010.99 1011.23 1011.65 1011.71 1011.91 1012.20 1012.49 1012.71 1012.78 1012.84 1013.15 1013.45 1013.74 1014.51 1014.86
1014.87 1014.52 1014.40 1014.04 1013.68 1013.78 1013.56 1013.03 1012.58 1012.26 1011.93 1011.76 1011.70 1011.58 1011.72 1011.49 1011.79 1011.89 1011.77 1011.62 1011.57 1011.47 1011.32 1011.28 1011.36 1011.60 1011.72 1011.69 1011.64 1011.61 1011.80 1012.07 1012.48 1012.75 1012.95 1013.07 1013.33 1013.43 1013.52 1013.64 1013.87 1014.22 1014.45
1014.56 1014.37 1013.99 1013.79 1014.11 1013.93 1013.52 1013.53 1013.09 1012.63 1012.33 1012.03 1011.84 1011.82 1011.92 1012.23 1012.31 1012.37 1012.44 1012.14 1012.01 1012.18 1012.22 1012.20 1012.23 1012.35 1012.49 1012.59 1012.61 1012.40 1012.38 1012.79 1013.07 1013.27 1013.47 1013.65 1013.59 1013.75 1013.90 1014.15 1014.42 1014.46 1014.70
1014.75 1014.19 1013.92 1014.31 1014.44 1014.09 1014.00 1014.04 1013.81 1013.48 1013.11 1012.80 1012.62 1012.65 1012.87 1013.03 1012.78 1012.50 1012.50 1012.71 1012.91 1013.07 1013.12 1013.15 1013.21 1013.31 1013.23 1013.19 1013.20 1013.27 1013.52 1013.58 1013.80 1014.22 1014.00 1014.05 1014.50 1014.70 1014.97 1014.77 1014.58 1014.76 1014.90
1014.00 1013.93 1014.16 1014.60 1014.60 1014.30 1014.18 1014.18 1013.99 1013.91 1013.89 1013.77 1013.67 1013.31 1013.18 1012.85 1012.60 1012.77 1012.98 1013.27 1013.51 1013.71 1013.79 1013.85 1013.89 1014.00 1014.08 1014.12 1014.24 1014.47 1015.09 1014.99 1014.65 1014.94 1014.69 1014.84 1014.90 1015.01 1015.03 1015.04 1015.04 1015.09 1015.15
1013.82 1014.09 1014.68 1014.72 1014.64 1014.33 1014.23 1014.14 1014.03 1013.87 1013.65 1013.54 1013.47 1013.31 1013.31 1013.20 1013.13 1013.31 1013.58 1013.82 1014.06 1014.26 1014.36 1014.58 1014.77 1014.85 1014.84 1015.04 1015.48 1015.90 1015.98 1015.86 1015.64 1015.70 1015.14 1015.06 1014.88 1014.46 1014.34 1014.52 1014.64 1014.56 1014.55
Wind_Speed
8 6 7 7 8 8 9 10 11 9 8 8 8 8 8 8 8 9 10 10 9 7 8 6 8 9 6 5 5 6 8 7 8 4 4 6 5 8 4 3 3 3 2
7 10 4 6 9 9 9 11 10 9 7 7 7 8 9 9 8 9 10 11 13 11 12 9 9 6 8 6 7 8 6 7 8 9 3 5 7 4 2 2 2 1 3
4 8 10 13 9 9 9 9 8 8 8 7 8 9 9 10 9 9 10 11 10 11 12 9 10 12 8 9 9 5 6 5 6 5 4 4 5 2 2 1 2 4 5
10 5 4 9 8 5 6 6 6 6 7 7 7 8 7 8 9 10 10 9 9 9 11 9 11 11 10 10 8 10 7 7 6 5 4 3 2 2 1 2 7 6 3
7 6 5 4 2 3 4 4 5 6 6 6 7 7 8 7 8 8 10 11 10 10 11 11 11 13 17 14 8 11 10 9 8 7 6 5 4 3 4 5 4 2 8
4 2 3 1 1 1 2 3 4 5 5 4 5 6 7 6 8 10 12 10 12 13 12 11 10 15 17 21 22 21 17 14 14 9 8 7 8 5 7 4 4 5 4
7 8 8 6 5 6 5 5 6 6 6 6 6 5 6 7 7 11 11 11 11 11 12 11 10 9 13 11 17 21 20 20 17 11 10 8 4 8 6 5 5 5 5
8 7 6 5 5 5 6 6 6 5 2 4 7 5 6 8 8 12 8 8 10 12 9 10 11 11 11 11 12 11 13 14 14 9 8 7 7 7 10 5 7 7 6
6 6 6 5 4 5 6 7 4 2 6 4 7 9 7 8 10 11 7 6 9 12 11 12 9 10 10 11 10 9 10 9 10 11 10 9 9 9 8 5 5 7 9
5 5 5 5 6 7 7 7 6 8 10 10 9 9 11 9 12 11 5 7 9 5 9 10 11 13 9 10 11 10 10 9 9 10 9 7 10 9 13 12 8 8 7
2 3 4 5 5 6 7 6 7 8 8 9 10 10 11 10 11 11 7 7 9 7 8 7 7 12 12 11 14 10 10 9 11 8 6 5 6 9 9 11 10 8 7
3 4 5 5 4 4 4 5 6 6 8 10 10 10 9 10 8 10 8 14 9 9 8 6 7 8 10 11 11 9 10 5 6 5 5 8 9 8 9 9 9 9 7
4 5 5 5 5 4 5 7 7 8 8 10 9 9 10 9 10 9 9 9 9 8 9 6 7 6 8 7 9 8 10 6 5 4 8 9 8 8 7 7 7 8 8
5 5 5 6 6 6 6 6 7 8 9 10 10 10 10 10 10 9 9 9 5 6 7 7 6 5 6 4 4 5 4 4 5 6 8 6 6 6 7 7 8 8 8
7 8 8 7 7 7 8 8 8 9 9 9 10 9 10 9 8 8 9 9 8 6 7 5 3 3 4 4 5 5 3 3 7 8 6 5 6 7 7 6 6 6 7
8 9 8 8 8 8 8 10 8 13 14 12 15 10 7 8 15 16 14 14 12 9 4 5 4 4 5 5 5 4 4 9 6 5 6 5 6 7 6 6 7 8 8
9 10 8 7 8 9 11 11 12 10 11 13 11 8 11 14 13 16 14 13 8 3 4 5 2 4 3 4 3 3 5 6 5 5 5 4 4 4 5 6 6 7 6
8 6 7 7 9 10 11 12 12 12 13 12 4 6 7 10 11 10 10 6 3 1 2 1 3 4 4 4 1 5 4 3 3 4 3 3 3 3 4 5 6 5 2
7 7 8 9 10 9 10 10 10 11 9 8 7 5 3 6 8 8 3 5 3 4 3 5 2 5 3 3 3 3 4 3 4 4 4 3 3 2 3 3 3 5 1
7 5 6 8 9 10 10 10 9 9 9 9 8 8 6 3 3 3 2 4 5 4 2 2 2 0 2 3 4 5 5 4 4 4 4 5 4 3 3 3 1 4 2
6 7 6 8 9 8 8 8 8 8 7 6 7 4 4 3 3 6 5 4 3 4 4 5 6 7 6 5 6 5 5 4 4 5 4 4 3 4 4 4 5 6 5
6 7 8 7 6 6 7 7 9 9 7 5 4 4 3 3 6 6 6 6 6 7 6 7 7 8 7 6 5 4 4 4 4 4 5 6 5 5 5 5 5 5 5
6 7 6 4 4 5 8 9 7 6 6 5 5 6 8 6 5 5 6 4 6 7 7 8 8 7 6 6 6 5 5 5 5 6 7 6 6 6 5 6 4 5 5
5 5 3 5 3 7 10 8 7 9 9 9 9 9 8 6 4 5 5 6 7 7 7 7 8 9 7 6 6 7 6 6 7 7 8 7 6 5 3 2 3 3 3
4 2 6 4 4 6 7 8 10 9 7 7 7 5 4 6 4 5 6 6 6 7 8 7 7 10 11 11 10 10 8 8 8 4 5 5 5 4 3 2 1 1 1
2 7 5 4 4 3 4 4 5 5 6 4 2 5 5 5 6 6 6 6 6 7 8 7 9 11 9 9 11 8 5 5 6 6 3 3 1 2 4 5 5 4 4
Wind_Direction
211 212 218 230 230 229 235 239 239 237 227 220 215 226 231 236 231 229 230 229 220 224 221 219 228 228 229 228 225 224 237 236 249 223 223 181 217 227 200 244 238 222 172
346 1 280 282 260 245 245 248 244 241 241 238 235 232 237 230 230 220 232 231 227 220 228 221 229 216 217 217 230 227 227 217 249 247 187 211 219 198 126 173 209 263 271
31 123 265 273 262 256 265 277 273 251 236 228 237 238 244 242 231 224 232 241 225 227 232 223 223 220 212 224 228 226 225 215 214 233 224 221 205 156 169 192 208 239 241
242 283 341 266 269 280 279 274 265 245 250 253 253 250 257 264 251 246 241 235 240 238 238 226 238 220 221 219 206 214 216 224 225 204 224 196 194 131 141 220 235 225 269
257 269 259 251 285 308 288 276 273 264 262 261 259 251 258 251 251 253 249 242 234 230 227 224 226 230 229 224 206 214 210 211 205 218 205 202 181 171 189 209 220 209 229
233 25 356 341 58 51 24 347 303 288 282 262 259 262 271 259 249 235 247 253 247 246 242 235 237 235 232 229 219 221 206 206 210 201 209 208 211 201 207 184 210 228 254
41 38 30 23 37 27 25 30 16 6 349 333 325 311 305 302 267 252 241 252 255 249 247 250 250 244 240 237 224 220 217 214 210 200 197 199 190 200 164 172 183 192 214
36 36 37 47 73 77 73 57 46 2 13 338 318 309 307 300 282 256 249 250 257 251 236 235 248 254 248 242 237 219 214 204 204 185 188 184 211 195 202 201 176 214 244
30 32 33 41 40 9 351 340 321 333 306 308 306 305 320 311 299 274 243 255 253 257 247 251 236 247 257 237 237 217 206 203 182 179 188 205 206 166 158 137 194 195 221
21 24 14 357 336 327 324 314 307 299 297 299 302 297 297 287 286 282 254 271 241 250 297 264 250 242 247 225 228 210 191 199 177 182 202 216 218 194 176 207 221 223 235
7 322 296 293 301 309 318 330 330 321 314 306 307 307 301 291 292 276 246 243 256 254 259 248 246 240 229 209 217 218 198 172 166 176 180 188 192 199 204 211 220 228 226
289 291 303 306 309 317 303 313 316 317 313 309 307 305 301 296 275 279 242 227 266 268 259 252 253 235 233 215 200 184 142 141 153 163 186 201 203 200 200 195 201 217 237
309 312 303 296 298 305 313 316 314 315 309 308 309 310 309 307 301 285 282 274 243 244 276 295 299 247 248 215 200 173 158 151 160 193 212 211 206 211 202 192 203 209 221
292 287 286 289 298 288 296 299 294 303 308 307 308 305 307 308 307 319 340 331 281 273 271 266 253 228 204 207 168 163 170 182 189 211 218 205 194 192 207 201 201 197 217
269 275 272 268 278 291 288 291 293 297 294 305 304 310 307 305 326 333 300 306 301 291 289 259 204 198 184 175 189 144 190 184 213 227 222 200 195 205 204 191 213 208 223
279 280 279 292 291 294 293 295 261 245 266 254 251 254 279 262 290 287 294 291 283 269 250 241 215 211 189 174 176 144 180 229 228 230 221 218 213 212 203 200 215 217 218
268 276 284 288 295 297 300 303 304 297 257 246 251 240 221 262 279 289 296 293 281 176 252 255 209 171 159 139 158 165 222 227 243 231 222 200 195 196 188 202 206 210 199
291 278 287 301 302 304 309 303 301 298 308 315 281 246 234 250 268 289 295 259 263 206 263 327 67 76 99 101 117 222 221 161 172 161 144 145 170 188 189 196 194 191 157
306 310 317 310 309 311 299 306 304 307 302 305 316 306 248 250 274 294 337 281 59 54 51 83 62 107 145 216 194 143 138 121 112 109 109 108 116 153 144 179 112 50 11
310 316 310 317 309 316 321 316 317 314 311 312 317 317 338 284 341 18 6 62 67 67 42 74 69 192 65 77 98 102 106 106 105 102 93 91 89 94 99 119 185 223 233
316 312 315 298 311 327 321 324 317 318 308 304 316 2 327 291 357 83 64 61 93 74 91 97 89 78 79 76 76 79 91 98 89 90 91 94 85 85 95 99 100 102 117
303 311 308 305 329 340 336 328 331 332 321 313 320 347 343 58 89 100 97 75 57 66 64 67 66 58 50 46 42 58 67 85 90 90 90 89 104 109 101 101 108 130 136
317 318 323 5 13 333 19 7 355 357 3 10 25 58 72 71 66 89 117 87 70 63 59 58 59 56 48 41 35 26 64 77 78 87 103 113 108 102 91 82 90 101 100
291 323 350 73 41 61 60 44 40 38 39 43 53 62 70 77 75 83 82 85 78 69 65 63 54 44 43 49 56 61 73 78 91 99 104 90 88 85 72 82 106 115 127
324 1 87 93 93 85 81 74 82 84 74 80 102 100 22 347 28 80 98 89 85 80 70 58 45 47 49 56 61 68 56 25 78 69 84 76 84 115 137 121 118 105 144
29 107 112 148 115 86 70 52 48 40 49 62 45 2 16 39 75 95 98 96 92 81 72 60 52 49 54 62 56 56 59 38 62 19 54 82 132 147 146 149 160 160 136